Date,TemperatureHighF,TemperatureAvgF,TemperatureLowF,DewpointHighF,DewpointAvgF,DewpointLowF,HumidityHigh,HumidityAvg,HumidityLow,PressureMaxIn,PressureMinIn,WindSpeedMaxMPH,WindSpeedAvgMPH,GustSpeedMaxMPH,PrecipitationSumIn
2013-5-1,54.2,44.3,34.8,37.4,26.1,7.0,94,55,16,30.32,29.46,20,8,36,0.14
2013-5-2,56.1,40.4,23.2,20.9,15.0,7.5,75,39,15,30.57,30.32,12,3,16,0.00
2013-5-3,64.5,47.5,27.3,21.9,13.0,-3.0,60,30,7,30.41,29.89,11,3,15,0.00
2013-5-4,70.2,55.1,33.9,27.7,17.3,9.5,48,25,10,29.90,29.67,16,3,23,0.00
2013-5-5,69.6,58.4,44.6,33.4,26.2,18.6,49,30,18,29.77,29.68,15,4,21,0.00
2013-5-6,63.6,52.9,40.4,44.7,37.1,28.5,94,58,31,29.88,29.68,14,3,21,0.03
2013-5-7,53.8,45.8,37.3,44.9,40.2,35.5,95,82,59,29.94,29.87,10,2,16,0.11
2013-5-8,53.0,44.8,38.0,41.5,38.5,35.5,96,80,57,30.02,29.88,12,3,16,0.08
2013-5-9,62.1,49.0,40.4,43.8,39.6,33.6,96,73,37,30.04,29.93,13,2,17,0.11
2013-5-10,64.6,51.2,36.2,39.9,35.6,32.0,85,58,30,30.15,30.00,16,3,19,0.00
2013-5-11,70.8,55.9,37.1,38.1,30.7,19.2,77,44,14,30.25,30.07,12,3,30,0.00
2013-5-12,75.0,61.7,47.3,40.3,33.6,27.2,63,37,19,30.12,29.92,12,3,15,0.00
2013-5-13,79.8,64.4,44.9,43.9,35.5,25.8,65,37,14,30.04,29.83,14,4,18,0.00
2013-5-14,82.0,65.6,47.9,44.9,36.8,27.6,59,37,14,29.85,29.63,12,3,20,0.00
2013-5-15,80.8,63.4,50.6,47.2,40.4,24.5,65,45,21,29.73,29.55,14,2,23,0.02
2013-5-16,79.9,64.3,45.5,40.0,31.2,23.6,72,32,14,29.71,29.55,13,3,21,0.00
2013-5-17,77.5,67.3,55.2,31.3,22.5,14.6,33,19,10,29.66,29.50,19,6,26,0.00
2013-5-18,69.6,58.0,45.4,38.9,31.6,22.2,60,38,21,29.73,29.57,20,4,34,0.00
2013-5-19,60.1,49.9,39.8,38.3,33.9,27.7,72,55,33,29.83,29.74,15,3,24,0.00
2013-5-20,61.1,49.2,35.2,39.1,34.8,30.0,83,60,36,29.97,29.83,24,4,27,0.00
2013-5-21,69.3,55.5,38.0,39.9,35.0,28.2,80,49,27,29.98,29.72,10,2,15,0.00
2013-5-22,79.1,64.7,44.5,37.2,28.9,19.4,57,29,11,29.74,29.50,14,4,23,0.00
2013-5-23,82.6,70.8,54.7,37.9,21.8,9.5,39,17,7,29.59,29.43,23,6,30,0.00
2013-5-24,78.5,68.3,53.4,34.7,23.3,14.1,36,19,10,29.70,29.56,24,4,25,0.00
2013-5-25,80.8,66.2,51.1,34.8,24.1,15.4,34,21,9,29.77,29.61,13,5,22,0.00
2013-5-26,78.8,67.6,53.7,36.1,21.8,13.4,33,18,10,29.72,29.56,15,4,22,0.00
2013-5-27,76.4,66.1,54.4,33.6,21.6,11.5,32,19,9,29.67,29.48,15,4,18,0.00
2013-5-28,75.5,63.5,52.2,40.4,27.8,16.7,60,27,15,29.54,29.33,20,5,25,0.00
2013-5-29,65.7,54.1,40.7,44.6,36.4,20.7,94,56,18,29.66,29.47,16,4,26,0.01
2013-5-30,70.5,58.7,46.3,36.5,28.1,22.4,66,33,18,29.75,29.62,28,4,30,0.00
2013-5-31,68.2,57.7,46.2,33.0,21.8,10.0,54,27,12,29.92,29.74,17,5,26,0.00